EW0199 Weather Reports


Display with metric or nautical units.
time (UTC)temp
F
wind
direction
speed
MPH
gust
MPH
rain 1hr
in
rain 24hr
in
rain mn
in
humidity
%
barometer
mb
20260906204841 78 48 0.0 0.0 0.00 0.00 0.00 69 1019.1
20260906204344 78 48 0.0 0.0 0.00 0.00 0.00 67 1019.0
20260906203341 79 48 0.0 1.0 0.00 0.00 0.00 67 1019.0
20260906202905 79 48 0.0 2.0 0.00 0.00 0.00 64 1018.9
20260906202326 77 216 0.0 2.0 0.00 0.00 0.00 63 1018.9
20260906201852 76 216 0.0 1.0 0.00 0.00 0.00 66 1019.0
20260906201416 76 216 0.0 0.0 0.00 0.00 0.00 74 1019.0
20260906200840 76 216 0.0 0.0 0.00 0.00 0.00 70 1019.0
20260906200407 77 216 0.0 0.0 0.00 0.00 0.00 68 1019.0
20260906195823 78 219 0.0 1.0 0.00 0.00 0.00 65 1019.0
20260906195324 78 219 0.0 1.0 0.00 0.00 0.00 65 1019.0
20260906194848 77 118 0.0 1.0 0.00 0.00 0.00 66 1019.0
20260906194356 77 234 0.0 1.0 0.00 0.00 0.00 66 1019.1
20260906193902 78 76 0.0 0.0 0.00 0.00 0.00 65 1019.2
20260906193408 78 75 0.0 1.0 0.00 0.00 0.00 66 1019.2
20260906192840 79 188 0.0 1.0 0.00 0.00 0.00 62 1019.1
20260906192400 78 54 0.0 4.0 0.00 0.00 0.00 63 1019.2
20260906191821 78 9 0.0 4.0 0.00 0.00 0.00 65 1019.2
20260906191329 78 247 0.0 3.0 0.00 0.00 0.00 62 1019.2
20260906190836 79 47 0.0 3.0 0.00 0.00 0.00 61 1019.3
20260906190357 80 99 0.0 1.0 0.00 0.00 0.00 61 1019.2
20260906185858 80 18 0.0 1.0 0.00 0.00 0.00 60 1019.4
20260906185402 80 75 0.0 1.0 0.00 0.00 0.00 63 1019.4
20260906184927 80 213 0.0 2.0 0.00 0.00 0.00 63 1019.3
20260906184417 80 224 0.0 2.0 0.00 0.00 0.00 61 1019.4
20260906183835 79 184 0.0 1.0 0.00 0.00 0.00 65 1019.5
20260906183359 79 185 0.0 1.0 0.00 0.00 0.00 64 1019.7
20260906182902 79 185 0.0 1.0 0.00 0.00 0.00 65 1019.8
20260906182402 80 175 0.0 1.0 0.00 0.00 0.00 61 1019.7
20260906181823 80 236 0.0 3.0 0.00 0.00 0.00 64 1019.6
20260906181350 80 235 0.0 3.0 0.00 0.00 0.00 63 1019.7
20260906180832 79 231 0.0 1.0 0.00 0.00 0.00 61 1019.8
20260906180355 79 229 0.0 4.0 0.00 0.00 0.00 62 1019.8
20260906175919 79 193 1.0 5.0 0.00 0.00 0.00 62 1019.8
20260906175336 78 283 0.0 5.0 0.00 0.00 0.00 65 1019.8
20260906174844 77 309 0.0 5.0 0.00 0.00 0.00 67 1019.8
20260906174346 77 309 0.0 5.0 0.00 0.00 0.00 64 1019.8
20260906173343 78 226 0.0 2.0 0.00 0.00 0.00 63 1019.9
20260906172906 77 222 0.0 4.0 0.00 0.00 0.00 65 1020.0
20260906172412 78 212 1.0 4.0 0.00 0.00 0.00 64 1020.1
20260906171919 77 269 0.0 3.0 0.00 0.00 0.00 68 1020.1
20260906171442 77 213 0.0 3.0 0.00 0.00 0.00 70 1020.2
20260906170935 76 296 0.0 2.0 0.00 0.00 0.00 66 1020.2
20260906170325 77 106 0.0 4.0 0.00 0.00 0.00 67 1020.3
20260906165849 76 209 1.0 4.0 0.00 0.00 0.00 69 1020.3
20260906164844 76 63 0.0 3.0 0.00 0.00 0.00 71 1020.2
20260906164347 76 5 0.0 1.0 0.00 0.00 0.00 69 1020.3
20260906163342 76 245 1.0 3.0 0.00 0.00 0.00 66 1020.4
20260906162851 76 127 0.0 3.0 0.00 0.00 0.00 69 1020.3
20260906162400 75 238 1.0 3.0 0.00 0.00 0.00 67 1020.4
20260906161847 75 210 0.0 2.0 0.00 0.00 0.00 71 1020.4
20260906160841 75 226 0.0 2.0 0.00 0.00 0.00 70 1020.4
20260906160404 75 75 0.0 2.0 0.00 0.00 0.00 70 1020.4
20260906155908 74 305 0.0 3.0 0.00 0.00 0.00 71 1020.3
20260906154846 74 190 0.0 4.0 0.00 0.00 0.00 74 1020.4
20260906154410 74 219 0.0 2.0 0.00 0.00 0.00 76 1020.4
20260906153827 73 226 0.0 2.0 0.00 0.00 0.00 79 1020.4
20260906153350 72 225 0.0 2.0 0.00 0.00 0.00 76 1020.4
20260906152912 72 241 0.0 4.0 0.00 0.00 0.00 80 1020.5
20260906151840 71 241 0.0 3.0 0.00 0.00 0.00 81 1020.4
20260906151403 71 233 0.0 3.0 0.00 0.00 0.00 79 1020.4
20260906150822 71 261 0.0 1.0 0.00 0.00 0.00 83 1020.6
20260906150322 70 261 0.0 2.0 0.00 0.00 0.00 85 1020.6
20260906145333 70 58 0.0 1.0 0.00 0.00 0.00 84 1020.5
20260906144851 70 270 0.0 1.0 0.00 0.00 0.00 85 1020.5
20260906144413 69 271 0.0 1.0 0.00 0.00 0.00 88 1020.4
20260906143934 68 270 0.0 1.0 0.00 0.00 0.00 88 1020.5
20260906143321 68 360 0.0 1.0 0.00 0.00 0.00 88 1020.5
20260906142844 67 269 0.0 0.0 0.00 0.00 0.00 91 1020.5
20260906141842 65 269 0.0 1.0 0.00 0.00 0.00 93 1020.7
20260906141351 64 269 0.0 1.0 0.00 0.00 0.00 96 1020.7
20260906140914 63 269 0.0 0.0 0.00 0.00 0.00 98 1020.8
20260906140416 63 269 0.0 0.0 0.00 0.00 0.00 99 1020.8
20260906135831 63 269 0.0 0.0 0.00 0.00 0.00 99 1020.8
20260906135354 62 269 0.0 0.0 0.00 0.00 0.00 99 1020.8
20260906134853 62 269 0.0 1.0 0.00 0.00 0.00 99 1020.7
20260906134405 61 279 0.0 1.0 0.00 0.00 0.00 99 1020.6
20260906133912 60 279 0.0 1.0 0.00 0.00 0.00 99 1020.5
20260906133325 59 279 0.0 0.0 0.00 0.00 0.00 99 1020.6
20260906132830 58 279 0.0 0.0 0.00 0.00 0.00 99 1020.6
20260906132353 58 279 0.0 0.0 0.00 0.00 0.00 99 1020.5
20260906131916 58 279 0.0 0.0 0.00 0.00 0.00 99 1020.5
20260906131329 57 279 0.0 1.0 0.00 0.00 0.00 99 1020.5
20260906130855 57 279 0.0 1.0 0.00 0.00 0.00 99 1020.5
20260906130401 56 208 0.0 0.0 0.00 0.00 0.00 99 1020.4
20260906125910 56 208 0.0 0.0 0.00 0.00 0.00 99 1020.4
20260906125415 55 208 0.0 0.0 0.00 0.00 0.00 99 1020.3
20260906124901 55 208 0.0 0.0 0.00 0.00 0.00 99 1020.2
20260906124421 54 208 0.0 0.0 0.00 0.00 0.00 99 1020.3
20260906123827 54 208 0.0 0.0 0.00 0.00 0.00 99 1020.3
20260906123349 53 208 0.0 0.0 0.00 0.00 0.00 99 1020.3
20260906122856 53 208 0.0 0.0 0.00 0.00 0.00 98 1020.2
20260906122404 53 208 0.0 0.0 0.00 0.00 0.00 98 1020.2
20260906121912 52 208 0.0 0.0 0.00 0.00 0.00 98 1020.0
20260906121415 52 208 0.0 0.0 0.00 0.00 0.00 98 1020.0
20260906120832 52 208 0.0 0.0 0.00 0.00 0.00 98 1020.0
20260906120355 51 208 0.0 0.0 0.00 0.00 0.00 98 1019.9
20260906115844 51 208 0.0 0.0 0.00 0.00 0.00 98 1019.9
20260906114846 51 208 0.0 0.0 0.00 0.00 0.00 98 1019.9
20260906114410 51 208 0.0 0.0 0.00 0.00 0.00 98 1020.0
20260906113920 51 208 0.0 0.0 0.00 0.00 0.00 98 1019.9
20260906113425 51 208 0.0 0.0 0.00 0.00 0.00 98 1019.8
20260906112830 51 208 0.0 0.0 0.00 0.00 0.00 98 1019.8
20260906112346 51 208 0.0 0.0 0.00 0.00 0.00 98 1019.7
20260906111854 51 208 0.0 0.0 0.00 0.00 0.00 98 1019.6
20260906111343 51 208 0.0 0.0 0.00 0.00 0.00 98 1019.5
20260906110340 51 208 0.0 0.0 0.00 0.00 0.00 98 1019.4
20260906105346 51 208 0.0 0.0 0.00 0.00 0.00 98 1019.4
20260906104327 52 208 0.0 0.0 0.00 0.00 0.00 98 1019.2
20260906103855 52 208 0.0 0.0 0.00 0.00 0.00 98 1019.2
20260906103424 52 208 0.0 0.0 0.00 0.00 0.00 98 1019.2
20260906102918 52 208 0.0 0.0 0.00 0.00 0.00 98 1019.2
20260906102339 52 208 0.0 0.0 0.00 0.00 0.00 98 1019.2
20260906101901 52 208 0.0 0.0 0.00 0.00 0.00 98 1019.3
20260906101403 52 208 0.0 0.0 0.00 0.00 0.00 98 1019.3
20260906100851 52 208 0.0 0.0 0.00 0.00 0.00 98 1019.2
20260906100402 52 208 0.0 0.0 0.00 0.00 0.00 98 1019.1
20260906095911 52 208 0.0 0.0 0.00 0.00 0.00 98 1019.1
20260906095355 52 208 0.0 0.0 0.00 0.00 0.00 98 1019.1
20260906094918 52 208 0.0 0.0 0.00 0.00 0.00 98 1019.1
20260906094342 52 208 0.0 0.0 0.00 0.00 0.00 98 1019.3
20260906093346 52 208 0.0 0.0 0.00 0.00 0.00 98 1019.2
20260906092345 53 208 0.0 0.0 0.00 0.00 0.00 98 1019.2
20260906091345 53 208 0.0 0.0 0.00 0.00 0.00 98 1019.2
20260906090905 53 208 0.0 0.0 0.00 0.00 0.00 98 1019.1
20260906090413 53 208 0.0 0.0 0.00 0.00 0.00 98 1019.2
20260906085836 53 208 0.0 0.0 0.00 0.00 0.00 98 1019.2
20260906085408 53 208 0.0 0.0 0.00 0.00 0.00 98 1019.2
20260906084937 53 208 0.0 0.0 0.00 0.00 0.00 98 1019.2
20260906084336 53 208 0.0 0.0 0.00 0.00 0.00 98 1019.1
20260906083902 53 208 0.0 0.0 0.00 0.00 0.00 98 1019.0
20260906083408 53 208 0.0 0.0 0.00 0.00 0.00 98 1019.1
20260906082915 53 208 0.0 0.0 0.00 0.00 0.00 98 1019.2
20260906082332 54 208 0.0 0.0 0.00 0.00 0.00 98 1019.2
20260906081855 54 208 0.0 0.0 0.00 0.00 0.00 98 1019.1
20260906081404 54 208 0.0 0.0 0.00 0.00 0.00 98 1019.2
20260906080908 54 208 0.0 0.0 0.00 0.00 0.00 98 1019.1
20260906080410 53 208 0.0 0.0 0.00 0.00 0.00 98 1019.1
20260906075855 53 208 0.0 0.0 0.00 0.00 0.00 98 1019.0
20260906075403 54 208 0.0 0.0 0.00 0.00 0.00 98 1018.8
20260906074910 54 208 0.0 0.0 0.00 0.00 0.00 98 1018.7
20260906074337 54 208 0.0 0.0 0.00 0.00 0.00 98 1018.6
20260906073904 54 208 0.0 0.0 0.00 0.00 0.00 98 1018.7
20260906073325 54 208 0.0 0.0 0.00 0.00 0.00 98 1018.8
20260906072849 54 208 0.0 0.0 0.00 0.00 0.00 98 1018.7
20260906072414 54 208 0.0 0.0 0.00 0.00 0.00 98 1018.7
20260906071837 55 208 0.0 0.0 0.00 0.00 0.00 98 1018.8
20260906071406 55 208 0.0 0.0 0.00 0.00 0.00 98 1018.7
20260906070824 55 208 0.0 0.0 0.00 0.00 0.00 98 1018.7
20260906070352 55 208 0.0 0.0 0.00 0.00 0.00 98 1018.8
20260906065827 55 208 0.0 0.0 0.00 0.00 0.00 98 1018.9
20260906065333 55 208 0.0 0.0 0.00 0.00 0.00 98 1018.9
20260906064839 55 208 0.0 0.0 0.00 0.00 0.00 98 1018.9
20260906064346 55 208 0.0 0.0 0.00 0.00 0.00 98 1018.9
20260906063852 55 208 0.0 0.0 0.00 0.00 0.00 98 1019.0
20260906063335 55 208 0.0 0.0 0.00 0.00 0.00 98 1019.0
20260906062825 55 208 0.0 0.0 0.00 0.00 0.00 98 1018.9
20260906062332 55 208 0.0 0.0 0.00 0.00 0.00 98 1018.8
20260906061839 56 208 0.0 0.0 0.00 0.00 0.00 98 1018.8
20260906061345 56 208 0.0 0.0 0.00 0.00 0.00 97 1018.9
20260906060850 56 208 0.0 0.0 0.00 0.00 0.00 98 1018.9
20260906060335 56 208 0.0 0.0 0.00 0.01 0.00 98 1018.7
20260906055902 56 208 0.0 0.0 0.00 0.01 0.00 98 1018.6
20260906055347 56 208 0.0 0.0 0.00 0.01 0.00 98 1018.6
20260906054852 56 208 0.0 0.0 0.00 0.01 0.00 98 1018.6
20260906054336 56 208 0.0 0.0 0.00 0.01 0.00 98 1018.6
20260906053843 56 208 0.0 0.0 0.00 0.01 0.00 98 1018.6
20260906053330 56 208 0.0 0.0 0.00 0.01 0.00 98 1018.4
20260906052836 56 208 0.0 0.0 0.00 0.01 0.00 98 1018.4
20260906052324 56 208 0.0 0.0 0.00 0.01 0.00 97 1018.2
20260906051830 56 208 0.0 0.0 0.00 0.01 0.00 97 1018.1
20260906051337 56 208 0.0 0.0 0.00 0.01 0.00 97 1018.2
20260906050822 57 208 0.0 0.0 0.00 0.01 0.00 97 1018.1
20260906050328 57 208 0.0 0.0 0.00 0.01 0.00 98 1018.1
20260906045917 57 208 0.0 0.0 0.00 0.01 0.00 97 1018.1
20260906045338 57 208 0.0 0.0 0.00 0.01 0.00 97 1018.0
20260906044907 57 208 0.0 0.0 0.00 0.01 0.00 97 1018.0
20260906043844 57 208 0.0 0.0 0.00 0.01 0.00 97 1017.9
20260906042846 57 208 0.0 0.0 0.00 0.01 0.00 97 1017.8
20260906042413 57 208 0.0 0.0 0.00 0.01 0.00 97 1017.7
20260906041901 58 208 0.0 0.0 0.00 0.01 0.00 97 1017.6
20260906040843 57 208 0.0 0.0 0.00 0.01 0.00 97 1017.6
20260906040412 57 208 0.0 0.0 0.00 0.01 0.00 97 1017.7
20260906035830 58 208 0.0 0.0 0.00 0.01 0.00 97 1017.7
20260906035358 58 208 0.0 0.0 0.00 0.01 0.00 97 1017.7
20260906034821 58 208 0.0 0.0 0.00 0.01 0.00 97 1017.9
20260906034344 58 208 0.0 0.0 0.00 0.01 0.00 97 1017.9
20260906033913 58 208 0.0 0.0 0.00 0.01 0.00 97 1017.8
20260906033330 58 208 0.0 0.0 0.00 0.01 0.00 97 1017.7
20260906032852 59 208 0.0 0.0 0.00 0.01 0.00 97 1017.6
20260906032416 59 208 0.0 0.0 0.00 0.01 0.00 97 1017.6
20260906031941 59 206 0.0 0.0 0.00 0.01 0.00 97 1017.6
20260906031342 59 208 0.0 0.0 0.00 0.01 0.00 97 1017.7
20260906030913 59 208 0.0 0.0 0.00 0.01 0.00 97 1017.6
20260906030327 59 208 0.0 0.0 0.00 0.01 0.00 97 1017.6
20260906025844 59 208 0.0 0.0 0.00 0.01 0.00 97 1017.6
20260906025409 59 208 0.0 0.0 0.00 0.01 0.00 97 1017.6
20260906024827 59 208 0.0 0.0 0.00 0.01 0.00 97 1017.6
20260906024350 59 208 0.0 0.0 0.00 0.01 0.00 96 1017.5
20260906023342 60 208 0.0 0.0 0.00 0.01 0.00 96 1017.5
20260906022343 60 208 0.0 0.0 0.00 0.01 0.00 96 1017.4
20260906021343 60 208 0.0 0.0 0.00 0.01 0.00 96 1017.4
20260906020350 61 208 0.0 0.0 0.00 0.01 0.00 96 1017.3
20260906015911 61 208 0.0 0.0 0.00 0.01 0.00 95 1017.2
20260906015433 61 208 0.0 0.0 0.00 0.01 0.00 95 1017.1
20260906014829 62 206 0.0 0.0 0.00 0.01 0.00 95 1017.1
20260906014353 62 208 0.0 0.0 0.00 0.01 0.00 95 1017.1
20260906013914 63 208 0.0 0.0 0.00 0.01 0.00 95 1017.1
20260906013416 63 208 0.0 0.0 0.00 0.01 0.00 95 1017.0
20260906012837 63 206 0.0 0.0 0.00 0.01 0.00 95 1017.1
20260906012400 63 206 0.0 0.0 0.00 0.01 0.00 95 1017.1
20260906011902 63 206 0.0 0.0 0.00 0.01 0.00 94 1017.1
20260906011431 63 208 0.0 0.0 0.00 0.01 0.00 94 1017.1
20260906010934 64 206 0.0 0.0 0.00 0.01 0.00 93 1017.0
20260906010324 64 206 0.0 0.0 0.00 0.01 0.00 92 1017.0
20260906005854 65 206 0.0 0.0 0.00 0.01 0.00 92 1016.9
20260906005416 65 206 0.0 0.0 0.00 0.01 0.00 91 1016.8
20260906004940 66 206 0.0 0.0 0.00 0.01 0.00 90 1016.7
20260906004421 66 208 0.0 0.0 0.00 0.01 0.00 89 1016.8
20260906003842 67 208 0.0 0.0 0.00 0.01 0.00 89 1016.7
20260906003406 67 208 0.0 0.0 0.00 0.01 0.00 87 1016.7
20260906002825 68 208 0.0 1.0 0.00 0.01 0.00 86 1016.7
20260906002357 69 208 0.0 0.0 0.00 0.01 0.00 84 1016.7
20260906001907 70 208 0.0 0.0 0.00 0.01 0.00 83 1016.7
20260906000844 73 208 0.0 0.0 0.00 0.01 0.00 77 1016.7
20260906000403 75 208 0.0 0.0 0.00 0.01 0.00 76 1016.7
20260905235823 77 208 0.0 1.0 0.00 0.01 0.00 74 1016.7
20260905235349 78 208 0.0 1.0 0.00 0.01 0.00 72 1016.6
20260905234351 79 301 0.0 0.0 0.00 0.01 0.00 70 1016.5
20260905233853 79 302 0.0 0.0 0.00 0.01 0.00 71 1016.5
20260905233416 78 302 0.0 0.0 0.00 0.01 0.00 71 1016.5
20260905232919 78 301 0.0 0.0 0.00 0.01 0.00 71 1016.6
20260905232342 78 302 0.0 1.0 0.00 0.01 0.00 71 1016.5
20260905231911 78 302 0.0 1.0 0.00 0.01 0.00 70 1016.6
20260905231335 78 79 0.0 1.0 0.00 0.01 0.00 70 1016.7
20260905230905 78 78 0.0 1.0 0.00 0.01 0.00 70 1016.5
20260905230430 78 78 0.0 2.0 0.00 0.01 0.00 69 1016.5
20260905225828 79 213 0.0 0.0 0.00 0.01 0.00 68 1016.5
20260905225349 81 213 0.0 0.0 0.00 0.01 0.00 65 1016.5
20260905224914 81 213 0.0 0.0 0.00 0.01 0.00 66 1016.5
20260905224330 80 213 0.0 0.0 0.00 0.01 0.00 69 1016.6
20260905223859 79 213 0.0 0.0 0.00 0.01 0.00 67 1016.7
20260905223418 78 213 0.0 0.0 0.00 0.01 0.00 70 1016.7
20260905222841 76 213 0.0 0.0 0.00 0.01 0.00 75 1016.7
20260905222410 76 213 0.0 0.0 0.00 0.01 0.00 75 1016.7
20260905221832 77 212 0.0 0.0 0.00 0.01 0.00 73 1016.8
20260905221356 77 213 0.0 0.0 0.00 0.01 0.00 72 1016.8
20260905220916 78 213 0.0 0.0 0.00 0.01 0.00 71 1016.7
20260905220343 78 213 0.0 1.0 0.00 0.02 0.00 68 1016.7
20260905215911 78 213 0.0 1.0 0.00 0.02 0.00 69 1016.7
20260905215329 78 213 0.0 1.0 0.00 0.02 0.00 69 1016.7
20260905214853 78 146 0.0 1.0 0.00 0.02 0.00 65 1016.6
20260905214401 78 147 0.0 1.0 0.00 0.02 0.00 68 1016.6
20260905213329 76 215 0.0 0.0 0.00 0.02 0.00 75 1016.6
20260905212854 76 215 0.0 0.0 0.00 0.02 0.00 79 1016.6
20260905212401 76 335 0.0 0.0 0.00 0.02 0.00 76 1016.6
20260905211910 76 52 0.0 0.0 0.00 0.02 0.00 74 1016.5
20260905211327 76 52 0.0 1.0 0.00 0.02 0.00 73 1016.5
20260905210849 76 52 0.0 1.0 0.00 0.02 0.00 73 1016.6
20260905210417 76 52 0.0 0.0 0.00 0.02 0.00 70 1016.6
20260905205841 77 52 0.0 0.0 0.00 0.02 0.00 70 1016.7